Regional Weather Roundup
Issued by NWS Glasgow, MT

Current Version | Previous Version | Text Only | Print | Product List | Glossary On
Versions: 1 2 3 4 5 6 7 8 9 10 11 12 13 14 15 16 17 18 19 20 21 22 23 24 25 26 27 28
000
ASUS45 KGGW 221415
RWRGGW
HOURLY REGIONAL WEATHER ROUNDUP FOR NORTHEAST MONTANA
NATIONAL WEATHER SERVICE GLASGOW MONTANA
700 AM MST SUN JAN 22 2017

NOTE: "FAIR" INDICATES FEW OR NO CLOUDS BELOW 12,000 FEET WITH NO
SIGNIFICANT WEATHER AND/OR OBSTRUCTIONS TO VISISBILITY.

NORTHEAST MONTANA


CITY           SKY/WX    TMP DP  RH WIND       PRES   REMARKS
GLASGOW        CLOUDY    27  26  96 W9        29.79R FOG
PLENTYWOOD       N/A     30  30 100 W12         N/A
WOLF POINT     CLOUDY    30  25  81 W9        29.80R
JORDAN           N/A     25  22  88 NW9       29.81R
SIDNEY         CLOUDY    28  26  92 NW14      29.79R
GLENDIVE       CLOUDY    26  25  96 NW6       29.80R
MALTA            N/A     29  29 100 W7          N/A
SCOBEY           N/A     28  22  78 NW10      29.74R

FORT PECK REPORTS


CITY           SKY/WX    TMP DP  RH WIND       PRES   REMARKS
FORT PECK        N/A     28  28 100 W10         N/A
THE PINES        N/A     28  28 100 CALM        N/A

SOUTHEAST MONTANA


CITY           SKY/WX    TMP DP  RH WIND       PRES   REMARKS
BILLINGS       CLOUDY    27  18  69 SW17      29.81S
MILES CITY     CLOUDY    12   8  84 SE5       29.82R FOG
BAKER          FOG       22  20  92 W14       29.79S VSB 3/4
LIVINGSTON     CLEAR     32  16  51 W22G28    29.79S

CENTRAL MONTANA


CITY           SKY/WX    TMP DP  RH WIND       PRES   REMARKS
HAVRE          CLOUDY    26  24  92 SW10      29.83R
LEWISTOWN      CLOUDY    18  13  80 SW8       29.78F
GREAT FALLS    CLOUDY    24  18  77 NE5       29.79S
CUT BANK       CLOUDY    22  22 100 NW6       29.79R FOG
HELENA         CLOUDY    11   7  84 CALM      29.84R
BUTTE          CLOUDY     6   2  83 CALM      29.80R
BOZEMAN        CLOUDY    14  11  87 CALM      29.83R

WESTERN MONTANA


CITY           SKY/WX    TMP DP  RH WIND       PRES   REMARKS
MISSOULA       CLOUDY    20  20 100 CALM      29.82F FOG
KALISPELL      NOT AVBL

NORTH DAKOTA


CITY           SKY/WX    TMP DP  RH WIND       PRES   REMARKS
WILLISTON      CLOUDY    29  26  89 W12       29.76R
DICKINSON      CLOUDY    23  21  92 W13       29.73R FOG
MINOT          CLOUDY    31  26  82 W16       29.69R
BISMARCK       CLOUDY    28  26  92 W9        29.75R

SOUTHERN SASKATCHEWAN


CITY           SKY/WX    TMP DP  RH WIND       PRES   REMARKS
REGINA         CLOUDY    27  25  93 NW12      29.70R
ESTEVAN        CLOUDY    27  25  93 W9        29.71R
SWIFT CURRENT  CLOUDY    23  23 100 NW17      29.74R





USA.gov is the U.S. government's official web portal to all federal, state and local government web resources and services.